Regional Weather Roundup
Issued by NWS

Home | Current Version | Previous Version | Graphics & Text | Print | Product List | Glossary On
Versions: 1 2 3 4 5 6 7 8 9 10 11 12 13 14 15 16 17 18 19 20 21 22 23 24 25 26 27 28
000
ASUS45 KPSR 201010
RWRAZ

ARIZONA HOURLY REGIONAL WEATHER ROUNDUP
NATIONAL WEATHER SERVICE PHOENIX AZ
300 AM MST SUN MAY 20 2018

NOTE: FAIR INDICATES FEW OR NO CLOUDS BELOW 12,000 FEET WITH NO
SIGNIFICANT WEATHER AND/OR OBSTRUCTIONS TO VISIBILITY.

AZZ001>003-036-201100-
NORTHWEST ARIZONA

CITY           SKY/WX    TMP DP  RH WIND       PRES   REMARKS
BULLHEAD CITY  CLEAR     82  34  17 S13       29.72R
KINGMAN        CLEAR     64  28  25 E9        29.88S
$$

AZZ004>008-015-016-018-201100-
NORTH CENTRAL ARIZONA

CITY           SKY/WX    TMP DP  RH WIND       PRES   REMARKS
GRAND CANYON   PTCLDY    41  17  38 NE3       30.06S
WILLIAMS       CLEAR     45  18  33 S8        30.05S
PRESCOTT       CLEAR     54  25  32 S6        29.99S
FLAGSTAFF      CLEAR     37  17  44 CALM      30.09S
PAYSON         CLEAR     54  12  19 CALM      30.00S
PAGE           PTCLDY    67  36  31 W3        29.89F
$$

AZZ009>014-017-201100-
NORTHEAST ARIZONA

CITY           SKY/WX    TMP DP  RH WIND       PRES   REMARKS
WINSLOW        CLEAR     54  17  23 W3        29.99R
SAINT JOHNS    CLEAR     49  14  24 S5        30.04R
WINDOW ROCK    CLEAR     49  15  25 CALM      30.07S
SHOW LOW       CLEAR     50  14  23 S7        30.08S
$$

AZZ540-542>544-546-548-201100-
GREATER PHOENIX AREA

CITY           SKY/WX    TMP DP  RH WIND       PRES   REMARKS
PHOENIX        CLEAR     79  34  19 N6        29.77R
BUCKEYE        CLEAR     68  34  28 CALM      29.79S
LUKE AFB       CLEAR     75  33  21 W6        29.76R
DEER VALLEY    CLEAR     69  28  21 SE5       29.79S
SCOTTSDALE     CLEAR     76  36  23 CALM      29.81S
MESA-GATEWAY   CLEAR     67  35  30 SE6       29.82R
$$

AZZ539-553-201100-
SOUTHWEST MARICOPA COUNTY AND PINAL COUNTY

CITY           SKY/WX    TMP DP  RH WIND       PRES   REMARKS
CASA GRANDE    CLEAR     68  29  23 CALM      29.82S
GILA BEND      FAIR      69  24  18 E9        29.77S
$$

AZZ503-504-507>509-201100-
SOUTHEAST ARIZONA

CITY           SKY/WX    TMP DP  RH WIND       PRES   REMARKS
TUCSON         CLEAR     68  30  24 SE7       29.90S
DAVIS-MONTHAN  CLEAR     66  28  24 SE8       29.89S
NOGALES        CLEAR     57  28  33 E7        29.96S
SIERRA VISTA   CLEAR     59  15  17 SW7       30.01S
DOUGLAS        CLEAR     52   6  15 E3        29.98R
SAFFORD        CLEAR     67  17  14 NW8       29.88R
$$

AZZ532-201100-
SOUTHWEST ARIZONA

CITY           SKY/WX    TMP DP  RH WIND       PRES   REMARKS
YUMA           NOT AVBL
$$

CAZ041-043-047-048-061-525>527-560>570-201100-
SOUTHERN CALIFORNIA

CITY           SKY/WX    TMP DP  RH WIND       PRES   REMARKS
DOWNTOWN L.A.  CLOUDY    60  54  80 CALM      29.89F
L.A. AIRPORT   CLOUDY    60  54  80 SW5       29.90F
SAN DIEGO      CLOUDY    62  54  74 NW3       29.92F
BURBANK        CLOUDY    60  55  83 S3        29.89S
ONTARIO        CLOUDY    60  53  77 SW5       29.90S
RIVERSIDE      CLOUDY    60  54  80 W5        29.90S
PALM SPRINGS   CLEAR     69  52  54 SE6       29.75S
EL CENTRO NAS  CLEAR     69  49  48 S10       29.73S
IMPERIAL       CLEAR     68  47  46 S3        29.72R
BLYTHE         CLEAR     74  32  21 SE5       29.73S
NEEDLES        CLEAR     80  39  23 SW10      29.73F
$$

NVZ020-UTZ003-201100-
SOUTHERN NEVADA-UTAH

CITY           SKY/WX    TMP DP  RH WIND       PRES   REMARKS
LAS VEGAS      PTCLDY    73  39  29 W5        29.79S
SALT LAKE CITY PTCLDY    60  44  55 S10       29.93S
$$

NMZ009-TXZ055-201100-
NEW MEXICO-WEST TEXAS

CITY           SKY/WX    TMP DP  RH WIND       PRES   REMARKS
ALBUQUERQUE    PTCLDY    58  40  51 E32G45    30.02R
EL PASO        PTCLDY    64  12  13 CALM      29.93R
$$


........................KEY........................
SKY/WX - SKY CONDITION/WEATHER
TMP    - TEMPERATURE IN FAHRENHEIT
DP     - DEW POINT IN FAHRENHEIT
RH     - RELATIVE HUMIDITY IN PERCENT
WIND   - DIRECTION AND SPEED IN MILES PER HOUR (MPH)
VRB    - VARIABLE WIND DIRECTION
PRES   - MEAN SEA LEVEL PRESSURE IN INCHES OF MERCURY
         F - FALLING PRESSURE   R - RISING PRESSURE
         S - STEADY PRESSURE
VSB    - VISIBILITY IN MILES
HX     - HEAT INDEX IN FAHRENHEIT
WCI    - WIND CHILL INDEX IN FAHRENHEIT
TC     - TEMPERATURE IN CELSIUS WHICH IS ALSO KNOWN AS
         TEMPERATURE IN CENTIGRADE
AFB    - AIR FORCE BASE
         LUKE AFB IS LUKE AIR FORCE BASE
         DAVIS-MONTHAN IS DAVIS-MONTHAN AIR FORCE BASE
NAS    - NAVAL AIR STATION
         EL CENTRO NAS IS EL CENTRO NAVAL AIR STATION
N/A    - NOT AVAILABLE





USA.gov is the U.S. government's official web portal to all federal, state and local government web resources and services.